Time,TemperatureF,DewpointF,PressureIn,WindDirection,WindDirectionDegrees,WindSpeedMPH,WindSpeedGustMPH,Humidity,HourlyPrecipIn,Conditions,Clouds,dailyrainin,SolarRadiationWatts/m^2,SoftwareType,DateUTC
2013-02-13 00:04:00,42.7,39.0,29.88,SSE,166,1.0,4.0,86,0.01,,,0.00,0,weatherlink.com 1.10,2013-02-13 05:04:00,
2013-02-13 00:19:00,42.4,39.0,29.86,South,183,1.0,7.0,86,0.01,,,0.00,0,weatherlink.com 1.10,2013-02-13 05:19:00,
2013-02-13 00:34:00,42.5,39.0,29.85,South,191,7.0,11.0,86,0.00,,,0.00,0,weatherlink.com 1.10,2013-02-13 05:34:00,
2013-02-13 00:49:00,42.6,38.0,29.84,SSW,197,2.0,11.0,82,0.00,,,0.00,0,weatherlink.com 1.10,2013-02-13 05:49:00,
2013-02-13 01:04:00,42.7,38.0,29.84,South,183,3.0,8.0,83,0.00,,,0.00,0,weatherlink.com 1.10,2013-02-13 06:04:00,
2013-02-13 01:19:00,42.8,37.0,29.84,SE,134,4.0,9.0,81,0.00,,,0.00,0,weatherlink.com 1.10,2013-02-13 06:19:00,
2013-02-13 01:34:00,42.8,38.0,29.83,SSW,193,4.0,8.0,82,0.00,,,0.00,0,weatherlink.com 1.10,2013-02-13 06:34:00,
2013-02-13 01:49:00,42.8,38.0,29.82,South,172,0.0,6.0,82,0.00,,,0.00,0,weatherlink.com 1.10,2013-02-13 06:49:00,
2013-02-13 02:04:00,42.8,38.0,29.82,SE,137,5.0,8.0,82,0.00,,,0.00,0,weatherlink.com 1.10,2013-02-13 07:04:00,
2013-02-13 02:19:00,42.7,38.0,29.81,SSW,194,4.0,8.0,83,0.00,,,0.00,0,weatherlink.com 1.10,2013-02-13 07:19:00,
2013-02-13 02:34:00,42.7,38.0,29.81,SSW,195,4.0,10.0,83,0.00,,,0.00,0,weatherlink.com 1.10,2013-02-13 07:34:00,
2013-02-13 02:49:00,43.3,39.0,29.80,SSE,163,2.0,12.0,83,0.00,,,0.00,0,weatherlink.com 1.10,2013-02-13 07:49:00,
2013-02-13 03:04:00,43.4,39.0,29.79,SSW,209,7.0,10.0,83,0.00,,,0.00,0,weatherlink.com 1.10,2013-02-13 08:04:00,
2013-02-13 03:19:00,43.4,39.0,29.78,South,180,7.0,10.0,83,0.00,,,0.00,0,weatherlink.com 1.10,2013-02-13 08:19:00,
2013-02-13 03:34:00,43.1,39.0,29.77,SSE,168,6.0,11.0,84,0.00,,,0.00,0,weatherlink.com 1.10,2013-02-13 08:34:00,
2013-02-13 03:49:00,42.5,39.0,29.77,SSE,147,4.0,13.0,87,0.02,,,0.02,0,weatherlink.com 1.10,2013-02-13 08:49:00,
2013-02-13 04:04:00,42.1,39.0,29.77,South,173,6.0,10.0,88,0.03,,,0.03,0,weatherlink.com 1.10,2013-02-13 09:04:00,
2013-02-13 04:19:00,42.2,39.0,29.77,SSE,147,3.0,10.0,88,0.03,,,0.03,0,weatherlink.com 1.10,2013-02-13 09:19:00,
2013-02-13 04:34:00,42.8,39.0,29.76,SW,223,5.0,7.0,87,0.03,,,0.03,0,weatherlink.com 1.10,2013-02-13 09:34:00,
2013-02-13 04:49:00,43.1,39.0,29.76,SW,221,0.0,6.0,86,0.01,,,0.03,0,weatherlink.com 1.10,2013-02-13 09:49:00,
2013-02-13 05:04:00,43.1,40.0,29.75,SSW,200,2.0,4.0,88,0.00,,,0.03,0,weatherlink.com 1.10,2013-02-13 10:04:00,
2013-02-13 05:19:00,43.0,40.0,29.74,NNW,344,2.0,4.0,90,0.00,,,0.03,0,weatherlink.com 1.10,2013-02-13 10:19:00,
2013-02-13 05:34:00,43.4,40.0,29.73,SSW,192,4.0,7.0,88,0.00,,,0.03,0,weatherlink.com 1.10,2013-02-13 10:34:00,
2013-02-13 05:49:00,43.6,40.0,29.72,South,182,3.0,6.0,87,0.00,,,0.03,0,weatherlink.com 1.10,2013-02-13 10:49:00,
2013-02-13 06:05:00,43.7,40.0,29.73,South,180,6.0,9.0,87,0.00,,,0.03,0,weatherlink.com 1.10,2013-02-13 11:05:00,
2013-02-13 06:18:00,43.4,40.0,29.71,NNW,339,2.0,4.0,88,0.00,,,0.03,0,weatherlink.com 1.10,2013-02-13 11:18:00,
2013-02-13 06:34:00,42.9,41.0,29.73,North,351,2.0,4.0,91,0.00,,,0.03,0,weatherlink.com 1.10,2013-02-13 11:34:00,
2013-02-13 06:49:00,42.9,41.0,29.74,NNW,329,3.0,3.0,91,0.00,,,0.03,0,weatherlink.com 1.10,2013-02-13 11:49:00,
2013-02-13 07:04:00,43.9,41.0,29.72,South,173,2.0,6.0,89,0.00,,,0.03,0,weatherlink.com 1.10,2013-02-13 12:04:00,
2013-02-13 07:19:00,45.0,41.0,29.74,SE,142,0.0,7.0,87,0.00,,,0.03,0,weatherlink.com 1.10,2013-02-13 12:19:00,
2013-02-13 07:34:00,44.9,41.0,29.71,SE,144,3.0,11.0,87,0.00,,,0.03,0,weatherlink.com 1.10,2013-02-13 12:34:00,
2013-02-13 07:49:00,45.0,41.0,29.71,SSE,163,3.0,9.0,87,0.00,,,0.03,7,weatherlink.com 1.10,2013-02-13 12:49:00,
2013-02-13 08:05:00,44.9,42.0,29.71,North,360,3.0,7.0,88,0.00,,,0.03,19,weatherlink.com 1.10,2013-02-13 13:05:00,
2013-02-13 08:20:00,44.1,41.0,29.72,NE,38,1.0,7.0,90,0.00,,,0.03,18,weatherlink.com 1.10,2013-02-13 13:20:00,
2013-02-13 08:35:00,44.5,42.0,29.73,West,275,2.0,5.0,89,0.00,,,0.03,25,weatherlink.com 1.10,2013-02-13 13:35:00,
2013-02-13 08:50:00,45.5,42.0,29.72,SSW,211,5.0,11.0,87,0.00,,,0.03,30,weatherlink.com 1.10,2013-02-13 13:50:00,
2013-02-13 09:05:00,45.8,42.0,29.74,South,180,3.0,7.0,87,0.00,,,0.03,47,weatherlink.com 1.10,2013-02-13 14:05:00,
2013-02-13 09:20:00,46.0,42.0,29.72,SSE,156,1.0,9.0,86,0.00,,,0.03,39,weatherlink.com 1.10,2013-02-13 14:20:00,
2013-02-13 09:35:00,45.9,42.0,29.73,SSW,205,4.0,7.0,86,0.00,,,0.03,65,weatherlink.com 1.10,2013-02-13 14:35:00,
2013-02-13 09:50:00,46.1,42.0,29.73,SW,216,5.0,8.0,86,0.00,,,0.03,37,weatherlink.com 1.10,2013-02-13 14:50:00,
2013-02-13 10:05:00,46.2,42.0,29.73,SSE,148,0.0,8.0,85,0.00,,,0.03,90,weatherlink.com 1.10,2013-02-13 15:05:00,
2013-02-13 10:20:00,46.7,42.0,29.73,SSE,168,4.0,7.0,84,0.00,,,0.03,98,weatherlink.com 1.10,2013-02-13 15:20:00,
2013-02-13 10:35:00,47.0,42.0,29.73,South,184,3.0,10.0,84,0.00,,,0.03,83,weatherlink.com 1.10,2013-02-13 15:35:00,
2013-02-13 10:50:00,47.4,43.0,29.74,SSW,211,4.0,6.0,84,0.00,,,0.03,128,weatherlink.com 1.10,2013-02-13 15:50:00,
2013-02-13 11:05:00,48.0,43.0,29.73,South,175,3.0,5.0,82,0.00,,,0.03,262,weatherlink.com 1.10,2013-02-13 16:05:00,
2013-02-13 11:20:00,48.5,43.0,29.73,SSW,199,4.0,6.0,81,0.00,,,0.03,174,weatherlink.com 1.10,2013-02-13 16:20:00,
2013-02-13 11:35:00,49.2,44.0,29.73,WNW,289,1.0,8.0,81,0.00,,,0.03,209,weatherlink.com 1.10,2013-02-13 16:35:00,
2013-02-13 11:50:00,49.6,43.0,29.72,SW,217,5.0,8.0,78,0.00,,,0.03,241,weatherlink.com 1.10,2013-02-13 16:50:00,
2013-02-13 12:05:00,49.2,43.0,29.73,SW,229,2.0,13.0,79,0.00,,,0.03,144,weatherlink.com 1.10,2013-02-13 17:05:00,
2013-02-13 12:20:00,48.8,43.0,29.73,WSW,242,7.0,15.0,79,0.00,,,0.03,116,weatherlink.com 1.10,2013-02-13 17:20:00,
2013-02-13 12:35:00,48.4,42.0,29.73,SW,219,9.0,12.0,79,0.00,,,0.03,172,weatherlink.com 1.10,2013-02-13 17:35:00,
2013-02-13 12:50:00,48.5,42.0,29.72,SW,216,5.0,10.0,79,0.00,,,0.03,285,weatherlink.com 1.10,2013-02-13 17:50:00,
2013-02-13 13:05:00,48.6,42.0,29.71,WSW,241,3.0,10.0,77,0.00,,,0.03,230,weatherlink.com 1.10,2013-02-13 18:05:00,
2013-02-13 13:20:00,49.0,42.0,29.72,SSW,199,7.0,13.0,76,0.00,,,0.03,371,weatherlink.com 1.10,2013-02-13 18:20:00,
2013-02-13 13:35:00,49.1,41.0,29.72,West,279,8.0,11.0,74,0.00,,,0.03,218,weatherlink.com 1.10,2013-02-13 18:35:00,
2013-02-13 13:50:00,48.5,41.0,29.71,West,271,4.0,9.0,75,0.00,,,0.03,77,weatherlink.com 1.10,2013-02-13 18:50:00,
2013-02-13 14:05:00,48.0,41.0,29.71,NNE,12,3.0,9.0,76,0.00,,,0.03,39,weatherlink.com 1.10,2013-02-13 19:05:00,
2013-02-13 14:20:00,47.6,41.0,29.71,West,277,3.0,9.0,77,0.00,,,0.03,65,weatherlink.com 1.10,2013-02-13 19:20:00,
2013-02-13 14:35:00,47.5,41.0,29.72,WNW,291,2.0,12.0,78,0.00,,,0.03,123,weatherlink.com 1.10,2013-02-13 19:35:00,
2013-02-13 14:50:00,46.7,40.0,29.72,WSW,247,10.0,17.0,78,0.00,,,0.03,51,weatherlink.com 1.10,2013-02-13 19:50:00,
2013-02-13 15:05:00,46.1,40.0,29.73,West,277,7.0,15.0,79,0.00,,,0.03,67,weatherlink.com 1.10,2013-02-13 20:05:00,
2013-02-13 15:20:00,45.1,40.0,29.73,WNW,282,5.0,11.0,81,0.00,,,0.03,32,weatherlink.com 1.10,2013-02-13 20:20:00,
2013-02-13 15:35:00,44.6,40.0,29.74,West,269,4.0,10.0,83,0.00,,,0.03,100,weatherlink.com 1.10,2013-02-13 20:35:00,
2013-02-13 15:50:00,44.2,40.0,29.75,West,281,11.0,14.0,84,0.00,,,0.03,46,weatherlink.com 1.10,2013-02-13 20:50:00,
2013-02-13 16:05:00,43.1,40.0,29.76,NW,324,3.0,11.0,88,0.01,,,0.04,97,weatherlink.com 1.10,2013-02-13 21:05:00,
2013-02-13 16:20:00,43.0,40.0,29.77,WNW,291,2.0,7.0,89,0.02,,,0.05,40,weatherlink.com 1.10,2013-02-13 21:20:00,
2013-02-13 16:35:00,42.7,40.0,29.76,NW,315,2.0,9.0,90,0.02,,,0.05,83,weatherlink.com 1.10,2013-02-13 21:35:00,
2013-02-13 16:51:00,42.3,39.0,29.77,NW,324,3.0,11.0,89,0.03,,,0.06,21,weatherlink.com 1.10,2013-02-13 21:51:00,
2013-02-13 17:06:00,41.6,39.0,29.78,WSW,238,5.0,8.0,90,0.04,,,0.09,18,weatherlink.com 1.10,2013-02-13 22:06:00,
2013-02-13 17:20:00,41.5,39.0,29.79,WNW,293,5.0,11.0,91,0.04,,,0.09,12,weatherlink.com 1.10,2013-02-13 22:20:00,
2013-02-13 17:35:00,41.5,38.0,29.80,NW,313,6.0,15.0,87,0.04,,,0.09,7,weatherlink.com 1.10,2013-02-13 22:35:00,
2013-02-13 17:51:00,40.9,37.0,29.82,West,276,3.0,15.0,86,0.03,,,0.09,0,weatherlink.com 1.10,2013-02-13 22:51:00,
2013-02-13 18:05:00,40.6,37.0,29.83,West,260,5.0,10.0,86,0.00,,,0.09,0,weatherlink.com 1.10,2013-02-13 23:05:00,
2013-02-13 18:21:00,40.1,37.0,29.83,WSW,258,6.0,9.0,87,0.00,,,0.09,0,weatherlink.com 1.10,2013-02-13 23:21:00,
2013-02-13 18:35:00,39.8,36.0,29.83,WSW,253,6.0,11.0,86,0.00,,,0.09,0,weatherlink.com 1.10,2013-02-13 23:35:00,
2013-02-13 18:50:00,39.5,36.0,29.85,West,272,3.0,10.0,86,0.00,,,0.09,0,weatherlink.com 1.10,2013-02-13 23:50:00,
2013-02-13 19:05:00,39.1,35.0,29.85,West,277,1.0,10.0,86,0.00,,,0.09,0,weatherlink.com 1.10,2013-02-14 00:05:00,
2013-02-13 19:20:00,38.5,35.0,29.86,WNW,293,4.0,7.0,86,0.00,,,0.09,0,weatherlink.com 1.10,2013-02-14 00:20:00,
2013-02-13 19:35:00,38.7,35.0,29.87,West,273,4.0,11.0,86,0.00,,,0.09,0,weatherlink.com 1.10,2013-02-14 00:35:00,
2013-02-13 19:50:00,38.3,35.0,29.87,WSW,254,5.0,10.0,86,0.00,,,0.09,0,weatherlink.com 1.10,2013-02-14 00:50:00,
2013-02-13 20:06:00,37.7,34.0,29.88,NW,316,5.0,9.0,87,0.00,,,0.09,0,weatherlink.com 1.10,2013-02-14 01:06:00,
2013-02-13 20:21:00,37.3,34.0,29.88,WNW,296,4.0,6.0,87,0.00,,,0.09,0,weatherlink.com 1.10,2013-02-14 01:21:00,
2013-02-13 20:36:00,37.5,34.0,29.89,WNW,287,4.0,9.0,86,0.00,,,0.09,0,weatherlink.com 1.10,2013-02-14 01:36:00,
2013-02-13 20:51:00,36.9,33.0,29.89,WNW,291,5.0,9.0,86,0.00,,,0.09,0,weatherlink.com 1.10,2013-02-14 01:51:00,
2013-02-13 21:06:00,36.4,33.0,29.89,West,262,7.0,11.0,88,0.00,,,0.09,0,weatherlink.com 1.10,2013-02-14 02:06:00,
2013-02-13 21:21:00,36.0,33.0,29.89,West,277,4.0,8.0,88,0.00,,,0.09,0,weatherlink.com 1.10,2013-02-14 02:21:00,
2013-02-13 21:36:00,35.7,33.0,29.90,WSW,246,6.0,9.0,88,0.00,,,0.09,0,weatherlink.com 1.10,2013-02-14 02:36:00,
2013-02-13 21:51:00,35.3,32.0,29.90,WNW,298,3.0,12.0,88,0.00,,,0.09,0,weatherlink.com 1.10,2013-02-14 02:51:00,
2013-02-13 22:06:00,35.3,32.0,29.91,WNW,302,3.0,9.0,87,0.00,,,0.09,0,weatherlink.com 1.10,2013-02-14 03:06:00,
2013-02-13 22:21:00,35.3,32.0,29.92,WNW,286,4.0,10.0,87,0.00,,,0.09,0,weatherlink.com 1.10,2013-02-14 03:21:00,
2013-02-13 22:36:00,35.1,32.0,29.92,NW,322,0.0,6.0,87,0.00,,,0.09,0,weatherlink.com 1.10,2013-02-14 03:36:00,
2013-02-13 22:51:00,35.0,32.0,29.93,South,172,1.0,6.0,87,0.00,,,0.09,0,weatherlink.com 1.10,2013-02-14 03:51:00,
2013-02-13 23:06:00,34.5,31.0,29.93,West,277,0.0,4.0,87,0.00,,,0.09,0,weatherlink.com 1.10,2013-02-14 04:06:00,
2013-02-13 23:21:00,34.3,31.0,29.93,WSW,238,2.0,6.0,88,0.00,,,0.09,0,weatherlink.com 1.10,2013-02-14 04:21:00,
2013-02-13 23:36:00,34.0,31.0,29.94,WNW,292,2.0,4.0,88,0.00,,,0.09,0,weatherlink.com 1.10,2013-02-14 04:36:00,